Regional Weather Roundup
Issued by NWS Little Rock, AR

Home | Current Version | Previous Version | Text Only | Print | Product List | Glossary Off
Versions: 1 2 3 4 5 6 7 8 9 10 11 12 13 14 15 16 17 18 19 20 21 22 23 24 25 26 27 28 29 30 31 32 33 34 35 36 37 38 39 40 41 42 43 44 45 46 47 48 49 50

000
ASUS44 KLZK 031405
RWRLZK

WEATHER ROUNDUP FOR ARKANSAS
NATIONAL WEATHER SERVICE LITTLE ROCK AR
900 AM CDT FRI JUL 03 2015

NOTE: "FAIR" INDICATES FEW OR NO CLOUDS BELOW 12,000 FEET WITH NO
SIGNIFICANT WEATHER AND/OR OBSTRUCTIONS TO VISIBILITY.

ARZ001-003-010-029-031500-
NORTHWEST ARKANSAS

CITY           SKY/WX    TMP DP  RH WIND       PRES   REMARKS
FAYETTEVILLE   PTSUNNY   74  71  91 SW5       29.95R
FORT SMITH     CLOUDY    73  69  87 VRB5      29.93R
HARRISON       CLOUDY    71  69  93 CALM      29.96R
BENTONVILLE    CLOUDY    72  66  83 CALM      29.96R
ROGERS         CLOUDY    72  70  94 N5        29.96R
SILOAM SPGS    CLOUDY    73  66  78 W5        29.95R
HIGHFILL       CLOUDY    74  70  87 W7        29.95R
SPRINGDALE     PTSUNNY   75  70  83 SW7       29.97R
$$

ARZ004-005-016-031500-
NORTH CENTRAL ARKANSAS

CITY           SKY/WX    TMP DP  RH WIND       PRES   REMARKS
BATESVILLE     MOSUNNY   73  72  94 CALM      29.91S
FLIPPIN        MOSUNNY   75  68  78 W9        29.91R
MTN HOME       PTSUNNY   75  69  81 W3        29.92S
$$

ARZ040-041-031500-
WEST CENTRAL ARKANSAS

CITY           SKY/WX    TMP DP  RH WIND       PRES   REMARKS
MENA           CLOUDY    73  72  94 W12G26    29.97R
MOUNT IDA      CLOUDY    73  71  93 NW7       29.94S
$$

ARZ009-017-025-026-028-031500-
NORTHEAST ARKANSAS

CITY           SKY/WX    TMP DP  RH WIND       PRES   REMARKS
JONESBORO      PTSUNNY   77  71  82 W8        29.91R
NEWPORT        LGT RAIN  74  73  96 W9        29.92S
WALNUT RIDGE   CLOUDY    73  70  88 N6        29.91R
BLYTHEVILLE    CLOUDY    75  71  87 W3        29.92S
$$

ARZ022-023-033-042-044-031500-
CENTRAL ARKANSAS

CITY           SKY/WX    TMP DP  RH WIND       PRES   REMARKS
LITTLE ROCK    TSTM      74  70  87 S8        29.93S FOG
N LITTLE ROCK  CLOUDY    74  74  97 S9          N/A
JACKSONVILLE   RAIN      76  74  95 NW2       29.92F FOG
SEARCY         LGT RAIN  75  73  93 SW5       29.94R
HOT SPRINGS    TSTM      74  73  97 W7        29.96R VSB 3/4
RUSSELLVILLE   CLOUDY    73  71  93 S3        29.94R
CLINTON        LGT RAIN  73  70  88 CALM      29.94S
$$

ARZ036-031500-
EAST ARKANSAS

CITY           SKY/WX    TMP DP  RH WIND       PRES   REMARKS
WEST MEMPHIS   LGT RAIN  73  72  96 SW6       29.93R
$$

ARZ050-053-066-070-073-031500-
SOUTHWEST ARKANSAS

CITY           SKY/WX    TMP DP  RH WIND       PRES   REMARKS
ARKADELPHIA    LGT RAIN  75  75 100 SW6       29.96S FOG
CAMDEN         CLOUDY    77  70  78 MISG      29.97R
TEXARKANA      CLOUDY    80  73  79 SW10G26   29.97R
EL DORADO      CLOUDY    78  73  84 SW9       29.98R
DE QUEEN       CLOUDY    79  75  87 SW8       29.93S
$$

ARZ056-057-069-031500-
SOUTHEAST ARKANSAS

CITY           SKY/WX    TMP DP  RH WIND       PRES   REMARKS
PINE BLUFF     LGT RAIN  74  72  93 W5        29.97R
STUTTGART      CLOUDY    73  70  88 SW15      29.94R
MONTICELLO     CLOUDY    78  75  90 SW9       29.97R

$$




USA.gov is the U.S. government's official web portal to all federal, state and local government web resources and services.